Temperature
19 17 17 17 18 18 18 18 17 18 18 18 17 17 17 17 17 17 17 18 18 19 19 19 19 18 18 18 18 18 17 17 17 17 17 17 17 16 16 16 16 16 16 16
17 17 18 18 18 18 18 18 17 18 18 18 17 17 17 17 17 17 17 18 18 19 19 19 19 18 18 18 18 18 18 17 17 17 17 17 17 17 16 16 16 16 16 16
18 18 19 19 19 18 18 18 18 18 18 17 17 17 17 17 17 17 18 18 18 19 19 19 19 19 19 18 18 18 18 18 17 17 17 17 17 16 16 16 16 16 16 16
18 18 19 19 19 19 18 18 18 18 17 16 17 16 17 16 16 17 17 18 19 19 19 19 19 19 19 19 19 18 18 18 17 17 17 17 17 16 16 16 16 16 16 16
18 18 19 19 19 19 18 18 18 17 17 16 16 16 16 16 17 17 17 18 19 19 19 19 19 19 19 19 19 18 18 18 17 17 17 17 16 16 16 16 16 16 16 16
18 19 19 19 19 19 18 18 17 15 15 16 16 16 16 16 17 17 17 18 19 19 19 19 19 19 19 19 19 18 18 18 18 17 17 17 16 16 16 16 16 16 16 16
18 18 19 19 19 18 17 16 16 16 15 16 16 16 16 17 17 17 17 18 18 19 19 19 19 19 19 19 19 18 18 18 18 17 17 17 17 16 16 16 16 16 16 16
17 17 18 19 18 18 17 16 16 16 16 15 16 16 17 17 18 18 18 18 19 19 19 19 19 19 19 19 19 18 18 18 18 17 17 17 17 16 16 16 16 16 16 16
17 17 19 19 19 18 17 16 16 15 16 15 15 16 17 18 17 17 17 18 18 19 19 19 19 19 19 19 19 18 18 18 18 17 17 17 17 16 16 16 16 16 16 15
17 17 18 18 19 18 18 16 15 15 16 15 16 16 16 17 17 17 16 17 18 18 19 19 19 19 19 19 19 18 18 18 18 17 17 17 17 16 16 16 16 16 16 15
17 17 17 18 18 18 17 16 15 14 15 15 15 16 17 17 17 16 16 18 18 18 19 19 19 19 19 19 19 18 18 18 18 17 17 17 17 16 16 16 16 16 15 15
16 14 15 17 18 18 18 17 15 16 15 14 14 15 17 17 17 17 17 18 18 18 18 19 19 19 18 18 18 18 18 18 17 17 17 17 17 16 16 16 16 16 15 15
16 15 15 16 17 17 17 17 16 14 14 13 14 16 17 16 17 17 17 18 18 18 18 18 18 18 18 18 18 18 18 18 17 17 17 17 16 16 16 16 16 15 15 15
16 14 15 16 16 16 17 17 16 15 14 14 14 16 16 16 16 16 17 18 18 18 18 18 18 18 18 18 18 18 18 18 17 17 17 17 16 16 16 15 15 15 15 15
15 15 16 16 16 16 17 17 16 16 15 15 15 15 16 16 16 17 17 17 17 17 17 17 17 18 18 18 18 18 17 17 17 17 17 16 16 16 15 15 15 15 15 14
14 15 16 16 16 16 17 17 16 16 16 15 16 16 16 17 17 16 17 17 17 17 17 17 17 17 17 17 17 17 17 17 17 17 16 16 16 16 15 15 15 15 14 14
13 14 14 14 15 16 16 17 17 17 16 16 16 16 16 15 15 16 16 16 17 17 17 17 17 17 17 17 17 17 17 17 16 16 16 16 16 15 15 15 15 14 14 14
13 13 12 13 15 16 16 17 17 17 16 15 16 16 16 16 16 17 17 17 17 16 16 16 16 16 17 17 16 16 16 16 16 16 16 16 15 15 15 15 14 14 14 14
12 12 12 12 14 15 16 16 16 16 16 15 15 15 15 15 16 16 17 17 17 17 17 16 16 17 16 16 16 16 16 16 16 16 16 15 15 15 15 14 14 14 14 14
12 12 12 12 14 15 16 17 17 16 16 16 15 15 15 15 13 14 16 16 16 16 16 16 16 16 16 16 16 16 16 16 16 15 15 15 15 15 14 14 14 14 13 13
13 12 12 12 13 14 15 16 16 16 15 16 16 16 15 15 15 16 16 16 16 16 16 16 16 16 16 15 15 15 15 15 15 15 15 15 14 14 14 14 14 13 13 13
12 12 11 11 13 14 15 15 14 15 16 16 16 16 16 16 16 16 16 16 16 16 16 16 16 15 15 15 15 15 15 15 15 15 14 14 14 14 14 14 13 13 13 13
11 12 11 12 13 14 15 15 16 16 16 16 16 16 16 15 15 15 15 15 15 15 15 15 15 15 15 14 14 14 14 14 14 14 14 14 14 14 13 13 13 13 13 12
11 11 11 11 12 14 15 15 16 16 16 16 16 16 16 15 15 15 15 15 15 14 14 14 14 14 14 14 14 14 14 14 14 14 14 14 13 13 13 13 13 12 12 12
11 10 11 11 12 13 15 15 15 16 16 16 16 15 15 15 15 15 14 14 14 14 14 14 14 14 14 13 13 13 13 13 13 13 13 13 13 13 13 12 12 12 12 12
10 11 11 12 13 13 14 15 15 15 15 15 15 15 15 15 14 14 14 14 14 14 14 14 13 13 13 13 13 13 13 13 13 13 13 13 12 12 12 12 12 11 11 11
Wind_Speed
4 5 1 3 3 3 3 2 1 3 2 1 2 4 5 3 4 5 5 5 6 7 5 3 5 5 4 4 5 5 5 4 4 3 2 2 1 0 1 1 2 3 3 4
5 1 4 2 2 4 3 2 1 2 2 0 2 4 4 3 5 6 7 7 8 6 4 4 5 5 6 6 6 6 6 6 5 3 3 2 2 1 1 1 2 2 3 4
3 3 1 3 3 3 1 2 2 1 3 4 2 5 4 3 2 3 5 6 6 7 7 6 5 6 6 6 7 7 6 6 5 4 3 3 3 3 2 1 1 1 2 3
0 2 1 2 0 3 0 1 3 2 2 2 2 2 6 4 3 3 4 5 6 6 6 6 6 7 7 7 6 6 6 6 5 6 5 5 3 2 2 1 1 1 2 2
1 0 1 0 2 2 2 1 2 2 2 1 3 0 6 3 4 5 5 4 5 6 6 7 7 8 7 6 6 6 5 4 5 5 6 5 3 2 1 1 1 1 1 2
1 1 1 2 1 3 3 5 5 5 4 1 2 2 5 3 5 5 4 4 4 4 5 5 5 4 4 4 5 5 6 4 4 5 5 6 5 4 3 2 1 0 0 1
4 3 2 1 3 3 5 5 4 5 4 3 2 1 6 6 5 5 5 4 3 3 4 4 4 4 5 5 6 5 6 4 4 5 5 5 5 5 5 4 3 2 1 0
1 3 3 1 3 3 2 5 5 2 2 4 3 3 6 5 3 2 2 2 2 3 3 4 5 5 5 6 6 6 6 5 5 5 4 4 4 4 3 3 3 3 2 2
3 3 3 1 1 5 4 2 4 5 1 1 4 5 6 3 4 3 2 1 1 2 3 4 4 4 5 6 7 8 7 6 5 5 5 4 3 4 3 3 3 2 2 2
5 2 3 2 3 2 4 6 5 4 2 2 5 4 4 4 4 3 2 2 2 2 3 3 3 4 4 5 5 6 7 7 6 5 5 4 4 4 3 3 3 2 2 2
3 3 3 2 1 2 2 3 4 3 3 3 2 6 4 5 4 4 4 3 3 3 3 4 4 4 4 4 4 5 5 5 5 5 5 4 4 3 3 3 3 2 2 3
3 4 1 4 4 2 3 4 5 3 2 3 3 6 5 3 3 3 3 3 2 2 3 3 3 3 3 4 4 5 5 5 5 5 5 5 4 3 3 3 2 2 2 2
3 4 2 5 4 3 1 2 3 4 3 4 3 6 3 3 3 2 2 1 1 1 2 2 2 2 3 3 4 4 4 5 5 5 5 5 4 4 4 3 3 3 3 2
4 4 5 6 5 3 3 2 3 4 3 4 6 7 6 5 5 4 3 2 1 2 2 2 2 2 2 3 3 4 4 4 5 5 5 5 5 5 4 3 3 3 3 3
4 2 4 5 4 3 5 5 5 5 7 7 7 7 8 6 5 3 2 1 1 1 1 2 3 2 2 2 2 3 3 4 5 5 5 5 5 4 4 3 3 3 3 3
3 2 1 2 2 3 5 6 6 7 6 7 6 8 7 4 1 1 1 2 1 1 2 2 2 2 3 3 3 3 3 4 5 5 5 5 5 4 4 4 3 3 3 2
1 3 1 3 4 3 5 6 7 5 6 7 8 8 3 1 2 3 2 2 3 3 2 3 3 4 4 4 4 4 4 3 5 5 4 5 6 5 5 5 4 4 3 3
5 4 2 0 2 5 7 4 5 6 6 6 6 5 4 4 3 3 3 3 3 2 3 3 2 3 3 3 3 3 4 4 4 4 4 5 5 6 5 5 5 4 3 3
5 6 3 3 2 7 7 3 3 4 4 3 4 3 1 0 2 2 1 2 3 4 3 3 3 3 2 3 3 3 3 4 3 4 4 5 6 6 6 6 5 4 4 4
3 4 4 3 3 5 6 4 2 2 4 3 3 3 2 3 1 4 3 1 1 1 1 1 1 1 2 2 3 4 4 4 5 5 5 4 5 6 7 7 5 4 4 4
2 2 4 5 5 7 6 3 2 3 6 3 3 4 4 4 5 4 2 1 1 1 1 2 2 1 2 2 3 4 4 5 5 4 3 3 4 5 6 5 4 4 4 4
6 4 5 5 5 8 3 3 4 6 3 2 2 3 3 3 1 1 1 1 1 0 1 2 2 1 0 2 4 4 4 4 3 3 3 3 3 4 4 5 4 4 5 5
6 7 5 7 7 4 3 4 3 2 3 3 2 2 3 2 2 2 1 1 1 1 1 2 2 1 1 1 4 5 4 3 3 4 3 3 3 3 4 5 5 4 4 4
4 2 3 5 7 6 5 4 3 3 4 3 3 2 2 3 3 2 2 2 1 1 2 2 2 1 1 1 2 3 3 3 4 4 4 3 3 3 3 3 4 4 4 4
5 3 3 6 8 6 6 5 4 3 2 1 2 3 3 3 4 4 3 3 3 2 2 2 3 3 2 2 2 2 2 4 4 4 4 3 3 3 3 3 3 4 4 5
6 7 6 8 8 6 8 7 4 4 5 4 4 4 3 4 5 4 4 3 3 2 2 2 2 2 2 1 1 1 1 3 4 4 4 3 3 3 3 3 1 1 1 2
Wind_Direction
41 69 143 222 192 169 148 143 234 284 286 156 235 260 267 219 199 214 217 218 226 231 241 222 198 185 172 166 170 170 160 154 138 121 123 116 115 78 52 63 94 113 123 130
49 347 249 202 134 122 134 119 302 313 355 113 280 288 276 228 215 214 212 221 224 223 223 205 191 183 183 184 184 179 176 170 169 155 144 142 133 112 97 54 60 94 117 125
145 246 187 126 115 111 80 181 210 229 1 14 0 330 314 295 250 242 229 225 220 212 212 209 195 193 189 191 190 187 184 178 173 152 119 94 71 52 45 34 5 14 108 113
146 290 105 97 60 140 250 242 182 161 59 325 25 316 301 299 302 265 248 235 228 221 207 201 195 198 198 202 191 182 177 177 169 155 150 148 150 161 197 191 209 27 80 97
282 326 94 80 263 152 187 68 89 92 120 15 6 134 295 333 299 281 265 246 231 216 200 198 199 201 200 193 182 177 168 171 168 165 164 157 157 170 151 122 107 48 44 77
266 273 187 196 70 117 118 61 51 46 67 16 288 179 287 269 255 275 272 253 235 208 194 197 195 183 186 175 169 164 161 168 168 166 166 167 169 165 150 159 162 119 29 38
349 341 335 114 69 28 66 78 31 6 12 277 285 211 256 261 258 244 251 247 224 189 182 184 180 181 184 177 174 169 165 170 168 163 170 176 176 171 175 183 179 173 169 203
102 301 274 197 163 173 152 137 151 193 242 289 328 260 266 278 290 278 239 221 166 161 178 189 195 191 190 185 178 172 173 174 167 164 172 174 173 170 177 178 173 182 192 203
169 257 294 233 163 137 132 163 165 137 160 302 298 298 308 333 359 5 11 71 177 192 196 195 193 190 187 184 185 180 178 175 174 172 166 160 164 164 171 171 167 179 185 174
156 213 301 312 71 37 138 145 103 118 144 287 304 293 264 288 301 312 308 265 243 218 206 202 194 194 190 187 184 175 177 178 175 169 170 168 169 175 169 147 156 172 173 148
125 151 319 18 131 198 110 103 114 118 146 157 277 280 239 231 251 267 271 259 229 211 205 204 198 192 177 162 162 167 172 167 163 169 168 156 162 163 149 152 175 179 161 142
119 120 253 271 273 226 167 164 147 151 217 179 195 267 280 244 260 267 273 266 234 197 190 190 183 164 154 160 168 172 172 170 175 171 161 164 162 153 151 167 178 162 152 147
127 107 51 346 344 9 65 139 138 130 130 171 195 263 308 345 321 312 294 275 216 168 151 145 145 156 168 172 175 173 171 175 170 158 157 161 162 162 174 185 172 154 150 145
113 125 172 202 225 231 262 237 171 136 166 214 225 251 295 313 315 319 312 279 195 161 152 148 160 169 174 168 169 169 172 169 161 157 161 169 181 184 188 183 165 163 155 152
96 163 215 238 245 229 241 246 214 205 202 207 236 239 261 264 258 268 273 244 135 123 148 175 180 169 162 159 166 167 170 168 164 158 169 183 185 181 172 168 164 158 152 158
66 152 197 291 278 256 266 262 230 229 220 224 247 261 258 259 216 263 257 167 174 189 189 194 184 177 181 184 184 176 172 177 167 170 185 181 168 164 167 171 161 150 151 150
110 130 109 283 311 351 278 243 225 223 213 198 226 245 264 268 233 229 230 196 198 207 216 216 206 204 206 208 195 190 187 170 168 175 180 176 172 171 178 171 156 162 167 157
155 140 146 234 32 248 252 249 218 226 242 226 233 253 241 236 233 222 195 189 200 215 238 237 226 226 223 211 203 185 160 160 170 176 179 178 175 176 171 164 169 177 172 167
169 153 143 147 225 277 291 262 196 206 263 243 230 250 257 110 50 324 241 200 211 218 228 227 217 221 207 201 191 163 162 163 169 188 192 187 180 176 172 176 184 183 174 178
101 128 141 153 190 245 255 266 235 144 273 265 199 203 175 111 95 267 278 250 234 233 233 199 167 119 179 206 172 164 174 178 198 208 203 190 180 179 183 185 184 178 175 184
101 112 169 187 219 258 258 274 102 159 253 276 200 196 176 188 218 245 276 264 227 227 192 157 140 128 201 187 164 172 181 205 212 196 178 172 178 183 182 175 174 166 161 157
184 179 193 172 204 250 251 136 173 224 261 236 210 199 194 216 247 289 277 245 193 80 127 140 146 124 182 174 167 181 207 217 182 159 159 170 174 176 173 164 166 160 154 153
204 195 194 198 219 253 241 222 245 216 222 230 216 226 199 217 241 260 268 240 233 229 177 162 158 135 46 199 185 199 220 191 158 151 163 169 163 161 160 165 165 158 160 165
255 184 189 247 263 263 263 264 279 263 244 249 224 199 190 221 234 240 246 242 230 237 203 174 152 154 263 266 224 218 206 177 159 160 164 158 149 146 149 154 161 166 172 174
231 191 226 257 271 284 275 263 270 286 282 268 252 226 218 219 236 231 224 222 221 224 214 189 184 196 231 270 259 235 194 166 161 155 157 156 156 155 155 159 171 181 192 188
209 204 211 242 249 243 266 269 259 258 262 243 237 256 249 227 229 225 224 223 218 218 206 201 201 199 227 271 291 256 179 159 154 151 158 160 157 157 153 147 115 77 184 191
Height
1519 1524 1529 1527 1525 1527 1529 1533 1536 1532 1527 1529 1531 1530 1527 1526 1526 1527 1528 1529 1530 1531 1533 1535 1537 1539 1541 1543 1544 1546 1547 1549 1550 1551 1552 1553 1553 1554 1554 1555 1555 1556 1556 1556
1525 1528 1524 1522 1523 1526 1529 1534 1535 1532 1527 1529 1531 1530 1525 1524 1525 1524 1525 1526 1528 1529 1531 1533 1535 1537 1539 1541 1543 1545 1547 1548 1549 1551 1552 1553 1553 1554 1554 1555 1555 1556 1556 1556
1527 1526 1521 1523 1525 1528 1531 1534 1534 1534 1531 1530 1532 1534 1528 1524 1523 1523 1524 1525 1526 1528 1529 1531 1533 1535 1538 1540 1541 1543 1545 1547 1549 1550 1551 1552 1553 1554 1554 1555 1555 1556 1556 1556
1525 1522 1522 1524 1526 1527 1534 1528 1529 1531 1537 1542 1538 1547 1532 1527 1524 1522 1522 1522 1523 1525 1527 1529 1531 1533 1535 1538 1540 1542 1544 1546 1548 1549 1550 1551 1552 1552 1553 1554 1555 1555 1555 1556
1526 1523 1523 1526 1525 1525 1529 1526 1529 1532 1537 1543 1541 1546 1539 1529 1526 1522 1520 1520 1521 1522 1524 1526 1528 1531 1533 1536 1538 1540 1543 1545 1546 1548 1549 1550 1551 1552 1553 1553 1554 1554 1555 1555
1523 1522 1522 1523 1522 1523 1525 1529 1533 1538 1542 1551 1544 1547 1543 1532 1525 1521 1518 1518 1519 1521 1523 1525 1527 1530 1532 1534 1537 1539 1541 1543 1545 1546 1548 1549 1550 1551 1551 1552 1553 1553 1554 1554
1528 1524 1522 1521 1525 1526 1528 1540 1553 1554 1558 1554 1543 1544 1539 1524 1520 1518 1517 1517 1517 1519 1521 1523 1526 1528 1530 1532 1535 1537 1539 1541 1543 1545 1546 1548 1549 1550 1550 1551 1552 1552 1552 1553
1536 1537 1524 1522 1524 1529 1531 1537 1553 1560 1561 1555 1544 1544 1532 1520 1517 1516 1516 1516 1517 1518 1520 1522 1524 1526 1528 1530 1533 1535 1537 1539 1542 1543 1545 1546 1548 1548 1549 1550 1551 1551 1551 1552
1535 1535 1522 1521 1521 1524 1531 1537 1536 1548 1551 1556 1549 1539 1527 1518 1517 1517 1516 1516 1517 1518 1519 1521 1523 1525 1527 1529 1531 1533 1536 1538 1540 1542 1543 1545 1546 1547 1548 1549 1549 1550 1550 1551
1526 1534 1525 1522 1522 1524 1526 1531 1541 1548 1556 1560 1551 1544 1537 1524 1520 1518 1517 1516 1516 1517 1519 1520 1522 1524 1526 1528 1530 1532 1534 1536 1538 1540 1542 1543 1545 1546 1547 1548 1548 1549 1549 1550
1524 1533 1531 1526 1527 1528 1530 1533 1538 1546 1548 1557 1558 1547 1523 1521 1518 1517 1516 1515 1515 1516 1517 1519 1521 1523 1525 1527 1529 1531 1532 1534 1536 1538 1540 1542 1543 1544 1545 1546 1547 1547 1548 1548
1525 1534 1538 1531 1523 1522 1524 1528 1536 1545 1549 1550 1554 1546 1517 1517 1516 1516 1515 1514 1514 1515 1516 1518 1520 1522 1524 1525 1527 1529 1531 1533 1534 1536 1538 1540 1541 1543 1544 1544 1545 1546 1546 1547
1524 1534 1543 1539 1535 1528 1527 1527 1531 1537 1545 1551 1552 1540 1517 1516 1515 1515 1514 1514 1514 1515 1516 1517 1519 1520 1522 1524 1526 1527 1529 1531 1533 1534 1536 1538 1539 1541 1542 1543 1544 1544 1545 1545
1521 1531 1538 1542 1537 1530 1529 1527 1529 1535 1544 1546 1542 1532 1520 1517 1515 1514 1514 1513 1514 1514 1515 1517 1518 1519 1520 1522 1524 1526 1527 1529 1531 1532 1534 1535 1537 1538 1540 1541 1542 1542 1543 1543
1522 1530 1529 1528 1526 1526 1526 1525 1526 1530 1532 1537 1531 1527 1519 1515 1514 1513 1513 1513 1513 1514 1515 1516 1517 1518 1519 1521 1522 1524 1526 1527 1529 1530 1531 1532 1534 1536 1537 1539 1540 1540 1541 1542
1524 1528 1528 1527 1524 1524 1524 1522 1523 1523 1524 1525 1524 1521 1513 1512 1512 1512 1512 1512 1513 1513 1514 1515 1516 1517 1517 1519 1520 1522 1523 1525 1526 1528 1529 1531 1532 1534 1535 1536 1537 1538 1539 1540
1527 1529 1533 1534 1528 1524 1527 1519 1518 1517 1516 1518 1520 1515 1510 1511 1511 1510 1511 1511 1512 1513 1513 1514 1514 1515 1516 1517 1518 1519 1521 1523 1524 1525 1527 1529 1530 1531 1533 1534 1535 1536 1537 1537
1526 1531 1537 1537 1532 1537 1522 1510 1510 1512 1512 1511 1510 1509 1508 1508 1508 1508 1509 1510 1510 1511 1512 1512 1513 1513 1514 1515 1516 1517 1518 1520 1522 1523 1524 1526 1527 1528 1530 1531 1532 1533 1534 1535
1520 1527 1536 1540 1538 1530 1517 1509 1509 1511 1511 1508 1507 1507 1507 1507 1507 1508 1508 1508 1509 1510 1510 1511 1511 1512 1512 1513 1514 1515 1516 1517 1518 1520 1521 1523 1524 1525 1526 1528 1529 1530 1531 1532
1520 1523 1532 1537 1535 1533 1517 1506 1505 1508 1512 1505 1504 1505 1506 1507 1511 1508 1506 1507 1507 1508 1508 1509 1509 1510 1510 1511 1512 1512 1513 1514 1515 1517 1518 1520 1521 1522 1523 1525 1526 1527 1528 1529
1524 1527 1531 1535 1533 1524 1509 1505 1505 1517 1513 1503 1502 1503 1504 1505 1506 1506 1505 1505 1506 1506 1506 1507 1507 1508 1508 1509 1509 1510 1510 1511 1513 1514 1516 1517 1518 1519 1520 1522 1523 1524 1526 1527
1522 1527 1529 1531 1531 1523 1505 1505 1508 1507 1502 1501 1501 1501 1502 1502 1503 1503 1503 1504 1504 1504 1504 1505 1505 1506 1506 1506 1507 1507 1508 1509 1510 1511 1513 1514 1515 1516 1517 1518 1520 1521 1522 1523
1517 1516 1517 1518 1514 1505 1502 1501 1501 1501 1500 1499 1500 1500 1501 1501 1501 1501 1501 1502 1502 1502 1502 1503 1503 1504 1504 1504 1504 1505 1506 1507 1507 1508 1510 1511 1512 1513 1514 1515 1516 1517 1518 1519
1511 1510 1512 1511 1504 1501 1500 1499 1498 1498 1498 1497 1498 1499 1499 1499 1499 1499 1499 1500 1500 1500 1501 1501 1501 1501 1501 1502 1502 1502 1503 1504 1504 1505 1506 1508 1509 1509 1511 1512 1513 1514 1514 1515
1507 1508 1509 1507 1501 1498 1496 1496 1496 1496 1495 1495 1495 1496 1497 1497 1497 1497 1497 1497 1498 1498 1499 1499 1499 1499 1499 1499 1499 1500 1500 1501 1502 1502 1503 1505 1506 1507 1508 1509 1510 1511 1512 1513
1502 1503 1504 1502 1496 1496 1493 1492 1493 1493 1492 1493 1493 1493 1493 1494 1494 1495 1495 1495 1495 1496 1496 1496 1496 1497 1497 1497 1497 1497 1498 1498 1499 1500 1501 1502 1502 1504 1505 1506 1507 1508 1509 1510